Regional Weather Roundup
Issued by NWS

Home | Current Version | Previous Version | Graphics & Text | Print | Product List | Glossary On
Versions: 1 2 3 4 5 6 7 8 9 10 11 12 13 14 15 16 17 18 19 20 21 22 23 24 25 26 27 28
000
ASUS45 KCYS 220110
RWRWY

WYOMING REGIONAL WEATHER ROUNDUP
NATIONAL WEATHER SERVICE CHEYENNE WY
600 PM MST SAT JAN 21 2017

NOTE:  "FAIR" INDICATES FEW OR NO CLOUDS BELOW 12,000 FEET
WITH NO SIGNIFICANT WEATHER AND/OR OBSTRUCTIONS TO VISIBILITY.

WYZ001-220200-
YELLOWSTONE NATIONAL PARK

CITY           SKY/WX    TMP DP  RH WIND       PRES   REMARKS
LK YELLOWSTONE   N/A     22  18  85 CALM      29.61R
W YELLOWSTONE  NOT AVBL

$$
WYZ002>013-054>058-071-098>099-220200-
NORTHERN WYOMING

CITY           SKY/WX    TMP DP  RH WIND       PRES   REMARKS
JACKSON        MOCLDY    19  18  93 CALM      29.63R
CODY           CLOUDY    24  17  74 CALM      29.57R
GREYBULL       CLOUDY    11   7  84 NW6       29.60R WCI   1
WORLAND        FAIR      14  12  92 NE5       29.58R WCI   6
SHERIDAN       FAIR      23  17  78 SW13      29.55R WCI  11
BUFFALO        FAIR      27  19  72 W6        29.54R WCI  20
GILLETTE       FAIR      28  25  88 CALM      29.53R
HULETT         FAIR      30  28  93 MISG      29.54R
NEWCASTLE      FAIR      23  23 100 CALM      29.54R

$$
WYZ014>020-022>026-101>103-220200-
CENTRAL WYOMING

CITY           SKY/WX    TMP DP  RH WIND       PRES   REMARKS
BIG PINEY      CLOUDY    20  15  81 N6        29.63R WCI  12
PINEDALE       CLOUDY    18  14  86 SE5       29.63R WCI  11
DUBOIS         NOT AVBL
LANDER         MOCLDY    19  14  81 CALM      29.56R
RIVERTON       FAIR     N/A N/A N/A CALM      29.57R FOG
CASPER         FAIR      26  20  77 NW9       29.54R WCI  17
DOUGLAS        FAIR      30  22  72 W5        29.53R WCI  25

$$
WYZ021-027>030-104>119-220200-
SOUTHERN WYOMING

CITY           SKY/WX    TMP DP  RH WIND       PRES   REMARKS
EVANSTON       LGT SNOW  22  18  85 W13       29.70R FOG     WCI  10
ROCK SPRINGS   LGT SNOW  24  21  88 W18       29.62R FOG     WCI  10
RAWLINS        CLOUDY    21  17  84 SW18      29.60R WCI   6
LARAMIE        CLOUDY    22  17  81 N6        29.51R WCI  14
CHEYENNE       FAIR      31  22  69 S3        29.51R
TORRINGTON     FAIR      38  24  57 NW5       29.50R WCI  34

$$




USA.gov is the U.S. government's official web portal to all federal, state and local government web resources and services.